Regional Weather Roundup
Issued by NWS

Home | Current Version | Previous Version | Text Only | Print | Product List | Glossary On
Versions: 1 2 3 4 5 6 7 8 9 10 11 12 13 14 15 16 17 18 19 20 21 22 23 24 25 26 27 28 29 30 31 32 33 34 35 36 37 38 39 40 41 42 43 44 45 46 47 48 49 50
180
ASUS43 KDTX 212101
RWRMI
MICHIGAN HOURLY REGIONAL WEATHER ROUNDUP
NATIONAL WEATHER SERVICE DETROIT/PONTIAC MI
400 PM EST SUN JAN 21 2018

NOTE: "FAIR" INDICATES FEW OR NO CLOUDS BELOW 12,000 FEET WITH NO
SIGNIFICANT WEATHER AND/OR OBSTRUCTION TO VISIBILITY.

MIZ047>049-052>055-059>063-066>070-074>076-081>083-212200-
SOUTHEAST LOWER MICHIGAN

CITY           SKY/WX    TMP DP  RH WIND       PRES   REMARKS
ADRIAN         FOG       38  38 100 S5        29.99R VSB<1/4 WCI  34
ALMA           LGT RAIN  37  37  99 E3        29.99R
ANN ARBOR      FOG       40  40 100 CALM      29.98S VSB 1/2
BAD AXE        CLOUDY    37  35  91 CALM      30.01R FOG
CARO           CLOUDY    38  35  89 CALM      29.99S FOG
DETROIT CITY   CLOUDY    40  38  93 E8        30.01R FOG     WCI  34
DETROIT        CLOUDY    42  39  89 E5        30.00R FOG
FLINT          CLOUDY    38  36  92 SE3       30.00R FOG
GROSSE ILE     FOG       38  37  99 CALM      30.00R VSB 3/4
HILLSDALE      FOG       39  37  93 CALM      29.95S VSB<1/4
HOWELL         CLOUDY    39  37  93 E3        29.98S FOG

CITY           SKY/WX    TMP DP  RH WIND       PRES   REMARKS
JACKSON        FOG       39  38  96 CALM      29.97S VSB<1/4
LAMBERTVILLE   FOG       41  40  97 S3        29.99R VSB 1/4
LANSING        CLOUDY    38  37  97 E3        29.98S FOG
LAPEER         CLOUDY    39  36  88 CALM      30.00R
MONROE         FOG       40  38  93 S3        29.99S VSB 1/4
MT. CLEMENS    CLOUDY    37  33  86 E6        30.01R FOG     WCI  32
PONTIAC        DRIZZLE   38  38 100 CALM      29.98R FOG
PORT HOPE        N/A     33  32  96 SE3       30.00R
PORT HURON     CLOUDY    37  36  93 CALM      30.02S FOG
TRI CITIES     CLOUDY    37  36  96 NE5       30.00R FOG     WCI  33
MIDLAND        CLOUDY    39  35  86 E3        29.99R FOG
TROY           CLOUDY    40  38  90 CALM      30.02R FOG
SAGINAW HB     CLOUDY    36  34  93 NE5       30.00R FOG     WCI  32
$$
MIZ043>046-050>051-056>058-064>065-071>073-077>080-212200-
SOUTHWEST LOWER MICHIGAN

CITY           SKY/WX    TMP DP  RH WIND       PRES   REMARKS
BATTLE CREEK   FOG       39  39 100 SE3       29.97R VSB 1/4
BENTON HARBOR  FOG       41  39  93 E6        29.94S VSB<1/4
BIG RAPIDS     FOG       37  35  94 CALM      29.96R VSB 1
COLDWATER      FOG       40  40 100 CALM      29.96R VSB<1/4
HOLLAND        CLOUDY    39  36  89 E3        29.95S FOG
GRAND RAPIDS   CLOUDY    38  37  97 E7        29.96R FOG     WCI  33
IONIA          FOG       37  37 100 CALM      29.97R VSB 1/2
KALAMAZOO      FOG       40  39  97 SE5       29.96R VSB 1/4
LUDINGTON      CLOUDY    40  37  90 E5        29.95R FOG
MARSHALL       FOG       38  37  98 SE5       29.96S VSB 1/2 WCI  34
MOUNT PLEASANT FAIR      39  36  87 CALM      29.98S FOG
MUSKEGON       CLOUDY    39  36  89 E5        29.95S FOG
SOUTH HAVEN    CLOUDY    42  40  93 SE3       29.94S FOG
$$
MIZ016>042-212200-
NORTHERN LOWER MICHIGAN

CITY           SKY/WX    TMP DP  RH WIND       PRES   REMARKS
ALPENA         CLOUDY    36  33  89 SE7       29.99R WCI  30
BEAVER ISLAND  CLOUDY    39  34  84 W3        29.98S HAZE
BELLAIRE       CLOUDY    42  36  79 CALM      29.97S
CADILLAC       CLOUDY    40  36  86 CALM      29.95R FOG
CHARLEVOIX     CLOUDY    38  33  83 CALM      30.01R
FRANKFORT      FAIR      42  35  75 CALM      29.96R
GAYLORD        CLOUDY    42  31  64 CALM      29.94S
GRAYLING       FAIR      42  31  67 CALM      29.97R
HARBOR SPRINGS CLOUDY    37  32  84 CALM      29.98R
HOUGHTON LAKE  FAIR      42  33  70 CALM      29.96S
MANISTEE       CLOUDY    43  36  76 E3        29.95S
OSCODA         FAIR      35  31  85 SW3       29.98S FOG
PELLSTON       CLOUDY    38  32  79 N6        29.99R WCI  33
ROGERS CITY    CLOUDY    36  33  88 CALM      29.99R FOG
TRAVERSE CITY  CLOUDY    44  35  70 CALM      29.96R
$$
MIZ007>008-015-212200-
EASTERN UPPER MICHIGAN

CITY           SKY/WX    TMP DP  RH WIND       PRES   REMARKS
KINROSS        FAIR      38  31  76 E5        29.99R WCI  34
MACKINAC ISLAN CLOUDY    34  32  92 E7        29.98S WCI  28
NEWBERRY       FAIR      39  32  77 CALM      29.97R
S. S. MARIE    FAIR      38  31  76 E5        29.99S WCI  34
MUNISING         N/A     34  33  96 N7        29.98R WCI  28
$$
MIZ004>006-011>014-085-212200-
CENTRAL UPPER MICHIGAN

CITY           SKY/WX    TMP DP  RH WIND       PRES   REMARKS
ESCANABA       CLOUDY    38  30  73 N3        29.97R
MENOMINEE      CLOUDY    37  31  78 E3        29.97R
SAWYER-GWINN   CLOUDY    32  28  86 NE10      29.96R WCI  24
$$
MIZ001>003-009>011-084-212200-
WESTERN UPPER MICHIGAN

CITY           SKY/WX    TMP DP  RH WIND       PRES   REMARKS
IRON MOUNTAIN  CLOUDY    38  31  76 N6        29.93R WCI  33
HOUGHTON       CLOUDY    34  29  82 NE5       29.99R WCI  30
COPPER HARBOR    N/A     32  30  92 E8        30.03R WCI  25
IRONWOOD       PTSUNNY   31  28  89 N7        30.00R WCI  24
$$

ABBREVIATIONS USED IN REMARKS
   TC - TEMPERATURE IN CELSIUS
  WCI - WIND CHILL INDEX
   HX - HEAT INDEX
  VSB - VISIBILITY





USA.gov is the U.S. government's official web portal to all federal, state and local government web resources and services.